Regional Weather Roundup
Issued by NWS

Home | Current Version | Previous Version | Graphics & Text | Print | Product List | Glossary On
Versions: 1 2 3 4 5 6 7 8 9 10 11 12 13 14 15 16 17 18 19 20 21 22 23 24 25 26 27 28 29 30 31 32 33 34 35 36 37 38 39 40 41 42 43 44 45 46 47 48 49 50
102
ASUS43 KBIS 182102
RWRND

NORTH DAKOTA REGIONAL WEATHER ROUNDUP
NATIONAL WEATHER SERVICE BISMARCK ND
300 PM CST SAT NOV 18 2017

NOTE: "FAIR" INDICATES FEW OR NO CLOUDS BELOW 12,000 FEET WITH NO
SIGNIFICANT WEATHER AND/OR OBSTRUCTIONS TO VISIBILITY.


NDZ001>003-009>011-017-182200-
NORTHWEST NORTH DAKOTA

CITY           SKY/WX    TMP DP  RH WIND       PRES   REMARKS
WILLISTON      CLOUDY    30  13  49 SW14      30.06F WCI  19
MINOT          SUNNY     28  10  46 W21       30.04S WCI  15
$$

NDZ018>021-031>035-040>046-182200-
SOUTHWEST NORTH DAKOTA

CITY           SKY/WX    TMP DP  RH WIND       PRES   REMARKS
BISMARCK       SUNNY     35  17  47 NW14      30.10S
DICKINSON      MOSUNNY   33  16  49 W12       30.04F
GARRISON         N/A     28  15  58 W17G26    30.06S WCI  16
HETTINGER ARPT SUNNY     37  18  46 W16       30.08S
$$

NDZ004>008-012>016-024-026-027-054-182200-
NORTHEAST NORTH DAKOTA

CITY           SKY/WX    TMP DP  RH WIND       PRES   REMARKS
GRAND FORKS    SUNNY     21  10  62 NW16G26   30.03S WCI   7
GRND FRKS AFB  SUNNY     20   8  61 NW15      30.03S WCI   6
DEVILS LAKE    SUNNY     18   8  65 W16       30.03R WCI   3
$$

NDZ022-023-025-028>030-036>039-047>053-182200-
SOUTHEAST NORTH DAKOTA

CITY           SKY/WX    TMP DP  RH WIND       PRES   REMARKS
FARGO          SUNNY     25   9  50 NW18G30   30.03S WCI  11
JAMESTOWN      SUNNY     23  10  57 NW20G29   30.04S WCI   8
$$





USA.gov is the U.S. government's official web portal to all federal, state and local government web resources and services.